User: anonymous   Login
Location: Unspecified
(0.0000°N, 0.0000°E)
Time: 17:43:20
(UTC+00:00)
Language:

GOES S - Orbit

View from above orbital plane
View from above orbital plane
View from above satellite
View from above satellite

Ground track
Ground track

The orbit data is extracted from the following two-line orbital elements,

1 43226U 18022A   19051.69607068 +.00000075 +00000-0 +00000-0 0  9990
2 43226 000.0243 069.5300 0003714 301.5107 252.6500 01.00273361003605
Epoch (UTC): 20 February 2019 16:42:20
Eccentricity: 0.0003714
inclination: 0.0243°
perigee height: 35770 km
apogee height: 35801 km
right ascension of ascending node: 69.5300°
argument of perigee: 301.5107°
revolutions per day: 1.00273361
mean anomaly at epoch: 252.6500°
orbit number at epoch: 360

The dashed part of the orbit path shows where the satellite is in the earth's shadow,  

DLR